Find Starlink 32236

NORAD ID: 60418 Int'l Des: 2024-141 Owner: SPXS Country: US Constellation: starlink operational
LEOCIRCULAR

リアルタイム位置

3D地球を読み込み中...

Starlink 32236について

説明を読み込み中...

次回通過

Passes for default location (London). Set your location on the main map for personalized predictions.

高度履歴

Loading altitude history...

軌道要素

1 60418U 24141W 26122.91664917 .00001555 00000-0 64618-4 0 9992
2 60418 53.1612 350.6588 0000795 80.5866 279.5225 15.30196948 97888
Epoch: May 2, 2026 • Age: 9 hours

現在のステータス

高度 491.3 km
速度 7.62 km/s
衛星直下点 -45.89°S, 29.45°W
打ち上げ日 Aug 10, 2024
運用期間 1.7 years
タイプ internet

技術仕様

分類 Payload
質量 730.00 kg
乾燥質量 700.00 kg
総質量 730.00 kg
長さ 0.30 m
直径 4.10 m
スパン 29.00 m
形状 Box + pan
製造者 SPXS
バスタイプ Starlink V2M
フェーズステータス In Orbit
所有者/国 SPXS/US

Most Searched